• En España
  • Lista de países
  • Para 7 días
  • Temperatura del agua
  • Mapa Satelital
  • El tiempo en el mapa
  • Informadores
  • user-avatar
    Iniciar sesión

    Tiempo cada hora Zakromskiy Hutor

    Hoy, 23 Julio, Lunes

    Tiempo Temperatura Precipitaciones Viento Presión Humedad
    00:00 +19°C° 0 mm 3 mps 735 mmHg 96%
    01:00 +19°C° 0 mm 3 mps 735 mmHg 96%
    02:00 +18°C° 0 mm 3 mps 735 mmHg 97%
    03:00 +18°C° 0 mm 4 mps 735 mmHg 97%
    04:00 +18°C° 0 mm 4 mps 735 mmHg 97%
    05:00 +19°C° 0 mm 4 mps 736 mmHg 96%
    06:00 +19°C° 0,1 mm 4 mps 736 mmHg 95%
    07:00 +19°C° 0,1 mm 4 mps 736 mmHg 94%
    08:00 +20°C° 0,1 mm 4 mps 736 mmHg 92%
    09:00 +20°C° 0,1 mm 4 mps 736 mmHg 91%
    10:00 +21°C° 0,1 mm 4 mps 736 mmHg 89%
    11:00 +21°C° 0,1 mm 4 mps 736 mmHg 88%
    12:00 +22°C° 0,2 mm 4 mps 736 mmHg 86%
    13:00 +23°C° 0,2 mm 5 mps 736 mmHg 84%
    14:00 +23°C° 0,2 mm 5 mps 736 mmHg 82%
    15:00 +23°C° 0,4 mm 5 mps 736 mmHg 83%
    16:00 +23°C° 0,4 mm 5 mps 736 mmHg 84%
    17:00 +23°C° 0,4 mm 5 mps 736 mmHg 85%
    18:00 +22°C° 0,6 mm 4 mps 736 mmHg 88%
    19:00 +21°C° 0,6 mm 4 mps 736 mmHg 91%
    20:00 +20°C° 0,6 mm 4 mps 736 mmHg 94%
    21:00 +20°C° 1 mm 3 mps 736 mmHg 94%
    22:00 +20°C° 1 mm 3 mps 737 mmHg 95%
    23:00 +20°C° 1 mm 3 mps 737 mmHg 96%

    Mañana, 24 Julio, Martes

    Tiempo Temperatura Precipitaciones Viento Presión Humedad
    00:00 +19°C° 0,1 mm 2 mps 737 mmHg 96%
    01:00 +19°C° 0,1 mm 2 mps 737 mmHg 95%
    02:00 +19°C° 0,1 mm 2 mps 737 mmHg 95%
    03:00 +19°C° 0 mm 2 mps 737 mmHg 95%
    04:00 +19°C° 0 mm 2 mps 737 mmHg 95%
    05:00 +19°C° 0 mm 2 mps 737 mmHg 94%
    06:00 +21°C° 0,1 mm 2 mps 738 mmHg 90%
    07:00 +23°C° 0,1 mm 2 mps 738 mmHg 86%
    08:00 +24°C° 0,1 mm 3 mps 738 mmHg 81%
    09:00 +26°C° 0,7 mm 3 mps 738 mmHg 76%
    10:00 +27°C° 0,7 mm 3 mps 739 mmHg 71%
    11:00 +28°C° 0,7 mm 3 mps 739 mmHg 66%
    12:00 +28°C° 0,7 mm 3 mps 739 mmHg 65%
    13:00 +28°C° 0,7 mm 3 mps 739 mmHg 65%
    14:00 +29°C° 0,7 mm 3 mps 739 mmHg 64%
    15:00 +28°C° 0,4 mm 3 mps 739 mmHg 67%
    16:00 +28°C° 0,4 mm 2 mps 739 mmHg 71%
    17:00 +28°C° 0,4 mm 2 mps 739 mmHg 74%
    18:00 +26°C° 0,4 mm 2 mps 739 mmHg 78%
    19:00 +24°C° 0,4 mm 2 mps 740 mmHg 82%
    20:00 +22°C° 0,4 mm 3 mps 740 mmHg 86%
    21:00 +21°C° 0,1 mm 3 mps 740 mmHg 88%
    22:00 +21°C° 0,1 mm 3 mps 740 mmHg 91%
    23:00 +20°C° 0,1 mm 3 mps 740 mmHg 93%

    Pasado mañana, 25 Julio, Miércoles

    Tiempo Temperatura Precipitaciones Viento Presión Humedad
    00:00 +20°C° 0 mm 3 mps 740 mmHg 94%
    01:00 +20°C° 0 mm 3 mps 741 mmHg 94%
    02:00 +19°C° 0 mm 3 mps 741 mmHg 95%
    03:00 +19°C° 0,1 mm 3 mps 741 mmHg 95%
    04:00 +20°C° 0,1 mm 3 mps 741 mmHg 95%
    05:00 +20°C° 0,1 mm 3 mps 741 mmHg 94%
    06:00 +20°C° 0,1 mm 3 mps 741 mmHg 90%
    07:00 +21°C° 0,1 mm 4 mps 741 mmHg 87%
    08:00 +22°C° 0,1 mm 4 mps 741 mmHg 83%
    09:00 +22°C° 0,2 mm 5 mps 741 mmHg 81%
    10:00 +22°C° 0,2 mm 6 mps 741 mmHg 79%
    11:00 +22°C° 0,2 mm 7 mps 741 mmHg 78%
    12:00 +22°C° 0,3 mm 7 mps 740 mmHg 82%
    13:00 +21°C° 0,3 mm 6 mps 740 mmHg 85%
    14:00 +20°C° 0,3 mm 6 mps 740 mmHg 89%
    15:00 +21°C° 0,7 mm 6 mps 740 mmHg 89%
    16:00 +21°C° 0,7 mm 6 mps 740 mmHg 89%
    17:00 +22°C° 0,7 mm 6 mps 740 mmHg 89%
    18:00 +22°C° 0,4 mm 6 mps 740 mmHg 90%
    19:00 +21°C° 0,4 mm 5 mps 740 mmHg 91%
    20:00 +21°C° 0,4 mm 5 mps 740 mmHg 92%
    21:00 +20°C° 0 mm 5 mps 740 mmHg 93%
    22:00 +20°C° 0 mm 4 mps 741 mmHg 94%
    23:00 +20°C° 0 mm 3 mps 741 mmHg 94%

    26 Julio, Jueves

    Tiempo Temperatura Precipitaciones Viento Presión Humedad
    00:00 +19°C° 0 mm 3 mps 741 mmHg 94%
    01:00 +19°C° 0 mm 3 mps 741 mmHg 94%
    02:00 +19°C° 0 mm 3 mps 741 mmHg 94%
    03:00 +19°C° 0 mm 3 mps 741 mmHg 94%
    04:00 +19°C° 0 mm 3 mps 741 mmHg 93%
    05:00 +19°C° 0 mm 3 mps 741 mmHg 93%
    06:00 +20°C° 0,3 mm 3 mps 742 mmHg 91%
    07:00 +20°C° 0,3 mm 4 mps 742 mmHg 88%
    08:00 +21°C° 0,3 mm 4 mps 742 mmHg 86%
    09:00 +22°C° 0,1 mm 4 mps 742 mmHg 82%
    10:00 +25°C° 0,1 mm 5 mps 742 mmHg 77%
    11:00 +26°C° 0,1 mm 5 mps 743 mmHg 73%
    12:00 +27°C° 0 mm 5 mps 743 mmHg 70%
    13:00 +28°C° 0 mm 5 mps 743 mmHg 67%
    14:00 +29°C° 0 mm 5 mps 743 mmHg 64%
    15:00 +28°C° 0 mm 5 mps 743 mmHg 67%
    16:00 +28°C° 0 mm 4 mps 743 mmHg 71%
    17:00 +28°C° 0 mm 4 mps 743 mmHg 74%
    18:00 +27°C° 0,1 mm 4 mps 743 mmHg 78%
    19:00 +25°C° 0,1 mm 4 mps 743 mmHg 81%
    20:00 +23°C° 0,1 mm 4 mps 743 mmHg 85%
    21:00 +22°C° 0,4 mm 4 mps 744 mmHg 85%
    22:00 +22°C° 0,4 mm 3 mps 744 mmHg 85%
    23:00 +21°C° 0,4 mm 3 mps 744 mmHg 85%

    27 Julio, Viernes

    Tiempo Temperatura Precipitaciones Viento Presión Humedad
    00:00 +21°C° 0,5 mm 3 mps 744 mmHg 86%
    01:00 +20°C° 0,5 mm 4 mps 744 mmHg 87%
    02:00 +20°C° 0,5 mm 4 mps 744 mmHg 89%
    03:00 +20°C° 0,4 mm 4 mps 744 mmHg 89%
    04:00 +20°C° 0,4 mm 5 mps 744 mmHg 89%
    05:00 +20°C° 0,4 mm 5 mps 744 mmHg 89%
    06:00 +21°C° 0 mm 5 mps 745 mmHg 85%
    07:00 +22°C° 0 mm 6 mps 745 mmHg 82%
    08:00 +23°C° 0 mm 6 mps 745 mmHg 78%
    09:00 +24°C° 0 mm 6 mps 745 mmHg 75%
    10:00 +26°C° 0 mm 6 mps 745 mmHg 72%
    11:00 +27°C° 0 mm 6 mps 745 mmHg 69%
    12:00 +28°C° 0,1 mm 6 mps 745 mmHg 67%
    13:00 +28°C° 0,1 mm 7 mps 745 mmHg 66%
    14:00 +29°C° 0,1 mm 7 mps 745 mmHg 65%
    15:00 +28°C° 0,1 mm 6 mps 745 mmHg 68%
    16:00 +28°C° 0,1 mm 5 mps 745 mmHg 71%
    17:00 +27°C° 0,1 mm 4 mps 745 mmHg 75%
    18:00 +26°C° 0 mm 4 mps 746 mmHg 77%
    19:00 +25°C° 0 mm 4 mps 746 mmHg 80%
    20:00 +23°C° 0 mm 4 mps 746 mmHg 82%
    21:00 +22°C° 0 mm 3 mps 746 mmHg 81%
    22:00 +22°C° 0 mm 3 mps 746 mmHg 80%
    23:00 +21°C° 0 mm 3 mps 746 mmHg 79%

    28 Julio, Sábado

    Tiempo Temperatura Precipitaciones Viento Presión Humedad
    00:00 +21°C° 0 mm 3 mps 746 mmHg 81%
    01:00 +21°C° 0 mm 3 mps 745 mmHg 83%
    02:00 +20°C° 0 mm 3 mps 745 mmHg 85%
    03:00 +20°C° 0 mm 3 mps 745 mmHg 85%
    04:00 +20°C° 0 mm 3 mps 745 mmHg 84%
    05:00 +20°C° 0 mm 3 mps 745 mmHg 84%
    06:00 +21°C° 0 mm 3 mps 745 mmHg 82%
    07:00 +22°C° 0 mm 4 mps 745 mmHg 79%
    08:00 +25°C° 0 mm 4 mps 746 mmHg 76%
    09:00 +25°C° 0,5 mm 4 mps 746 mmHg 74%
    10:00 +26°C° 0,5 mm 4 mps 746 mmHg 72%
    11:00 +27°C° 0,5 mm 4 mps 746 mmHg 70%
    12:00 +27°C° 0,1 mm 4 mps 746 mmHg 70%
    13:00 +27°C° 0,1 mm 4 mps 746 mmHg 70%
    14:00 +27°C° 0,1 mm 4 mps 745 mmHg 70%
    15:00 +27°C° 0 mm 4 mps 745 mmHg 70%
    16:00 +28°C° 0 mm 3 mps 746 mmHg 70%
    17:00 +28°C° 0 mm 3 mps 746 mmHg 70%
    18:00 +27°C° 0 mm 3 mps 746 mmHg 74%
    19:00 +25°C° 0 mm 3 mps 746 mmHg 78%
    20:00 +24°C° 0 mm 3 mps 746 mmHg 82%
    21:00 +22°C° 0 mm 3 mps 746 mmHg 84%
    22:00 +21°C° 0 mm 3 mps 746 mmHg 85%
    23:00 +21°C° 0 mm 3 mps 746 mmHg 86%
    Mostrar más